CAPE
0 0 439 951 1059 988 926 874 882 850 785 792 870 946 987 1085 1107 1052 1070 1101 890 856 940 1072 1159 1169 1187 1235 1328 1267 1266 1246 1227
859 845 986 1138 1230 1122 1101 1050 1015 963 894 844 865 945 1124 1159 1102 1000 1049 1132 932 832 889 1012 1135 1070 1071 1226 1353 1444 1471 1334 1439
1205 1338 1359 1380 1415 1341 1241 1218 1128 1053 937 843 687 689 1057 1196 1166 1127 1104 1179 1064 1009 976 1011 1153 1142 1205 1266 1292 1464 1473 1358 1360
1218 1339 1509 1430 1341 1403 1447 1355 1281 1188 1184 980 580 698 900 975 988 1034 1157 1123 1167 1127 1239 1163 1254 1313 1373 1358 1356 1351 1403 1347 1487
1202 1191 1192 1254 1409 1428 1484 1461 1425 1296 1300 1237 1218 648 132 547 1149 1550 1392 1236 1294 1406 1506 1578 1464 1591 1644 1680 1659 1648 1563 1615 1845
1026 1111 1244 1200 1365 1322 1351 1622 1564 1452 1658 1439 1119 349 293 326 88 340 1072 1524 1960 1875 2119 1997 2002 2013 1983 1961 1977 2050 2032 2020 2008
894 958 1099 1053 1171 977 751 465 550 1002 1718 1984 1421 734 114 210 1027 1174 1017 1086 792 1591 2163 2253 2342 2364 2296 2260 2194 2281 2321 2346 2218
573 910 843 902 781 848 670 710 638 710 949 669 1399 1848 1604 1792 1991 2167 2260 2325 2226 2221 2099 2217 2434 2465 2556 2620 2441 2307 2273 2373 2428
764 683 986 855 793 312 811 452 317 463 839 1441 2382 2147 1183 1306 2331 2512 2981 3094 3149 3105 2982 2912 2806 2472 2534 2702 2661 2293 1806 2049 2498
602 740 858 1029 1181 1171 531 669 444 417 1461 2021 2989 3100 2208 2147 380 2000 2421 3281 3187 3182 3332 3455 3164 3203 3141 2881 2852 2545 2017 1935 2315
678 624 780 970 824 871 1062 699 674 438 1733 2263 2291 2804 2782 1406 358 163 731 1453 1474 1945 2711 3164 3034 3126 3269 3129 3191 2696 2186 1949 2378
139 196 441 793 882 711 567 604 723 511 1004 1396 1093 926 1037 1202 1288 1078 668 242 243 449 613 804 1076 2081 2953 3168 3280 2676 2204 2017 2501
23 43 94 278 427 590 651 583 367 886 967 1061 742 505 488 339 243 115 138 190 220 322 266 216 264 382 1482 2855 3184 3044 2368 1958 2811
0 0 0 0 15 85 117 294 716 834 953 769 401 187 37 29 81 36 39 86 164 142 75 78 141 391 757 2368 3164 3250 2258 1602 2428
0 0 0 0 0 0 0 0 7 238 618 762 484 410 420 67 9 14 79 1 1 32 56 67 61 161 717 823 1566 1842 1549 1644 1538
0 0 0 0 0 0 0 0 0 0 2 137 419 376 471 338 81 8 43 28 0 31 27 0 11 40 174 472 798 767 833 956 889
0 0 0 0 0 0 0 0 0 0 0 0 0 38 446 595 347 152 90 73 123 3 0 0 0 12 107 232 431 465 316 511 533
0 0 0 0 0 0 0 0 0 0 0 0 0 0 0 227 606 499 265 116 137 26 0 0 0 0 31 232 272 438 404 507 606
0 0 0 0 0 0 0 0 0 0 0 0 0 0 0 1 66 598 639 334 227 0 0 0 0 0 0 13 204 346 235 191 265
0 0 0 0 0 0 0 0 0 0 0 0 0 0 0 3 17 81 261 541 397 129 61 0 0 0 0 0 0 1 51 149 197
CIN
-137 -0 -335 -295 -298 -332 -340 -358 -389 -383 -345 -244 -238 -222 -202 -186 -148 -114 -96 -71 -59 -53 -40 -40 -43 -49 -52 -53 -55 -58 -50 -34 -32
-306 -311 -347 -331 -322 -372 -338 -366 -368 -370 -323 -282 -246 -223 -206 -202 -184 -161 -103 -96 -103 -88 -74 -48 -61 -63 -53 -53 -63 -66 -53 -44 -37
-288 -304 -305 -297 -317 -330 -356 -346 -365 -393 -374 -328 -302 -200 -238 -172 -169 -150 -125 -98 -100 -89 -90 -78 -59 -72 -66 -62 -64 -74 -67 -55 -66
-316 -325 -331 -382 -411 -438 -426 -379 -358 -364 -367 -368 -327 -228 -213 -187 -186 -145 -138 -127 -100 -86 -98 -96 -76 -70 -69 -70 -62 -70 -74 -76 -63
-317 -399 -455 -485 -466 -441 -386 -339 -315 -329 -339 -265 -223 -234 -246 -227 -204 -153 -138 -143 -110 -95 -87 -93 -97 -67 -66 -68 -65 -61 -62 -57 -46
-205 -281 -312 -351 -374 -385 -365 -283 -282 -299 -238 -172 -177 -241 -130 -224 -297 -275 -173 -147 -99 -88 -78 -95 -79 -67 -72 -74 -65 -52 -54 -48 -41
-163 -229 -296 -365 -366 -380 -440 -477 -443 -314 -152 -110 -174 -243 -326 -343 -232 -205 -216 -199 -180 -126 -102 -94 -72 -67 -75 -78 -78 -63 -55 -47 -53
-161 -144 -255 -354 -383 -368 -391 -379 -380 -357 -287 -309 -183 -120 -196 -183 -156 -101 -103 -104 -114 -125 -151 -126 -99 -82 -75 -67 -88 -89 -100 -83 -63
-137 -163 -203 -291 -366 -455 -339 -394 -405 -364 -250 -166 -140 -169 -208 -165 -55 -51 -1 -17 -56 -70 -83 -87 -99 -109 -104 -82 -91 -106 -157 -109 -69
-219 -209 -202 -222 -251 -264 -317 -324 -405 -372 -169 -146 -101 -94 -143 -76 -289 -40 -19 -1 -46 -50 -42 -49 -91 -76 -70 -89 -85 -107 -141 -132 -62
-235 -251 -196 -191 -233 -267 -241 -285 -294 -316 -132 -104 -113 -90 -38 -123 -281 -347 -217 -111 -167 -134 -99 -64 -104 -86 -73 -98 -87 -113 -136 -139 -75
-367 -345 -282 -230 -237 -262 -298 -287 -262 -305 -210 -140 -164 -167 -182 -169 -140 -129 -207 -334 -347 -293 -260 -248 -232 -155 -81 -67 -91 -115 -134 -138 -70
-399 -433 -412 -337 -284 -250 -208 -238 -304 -211 -155 -165 -163 -184 -194 -274 -326 -382 -384 -391 -379 -371 -391 -375 -337 -317 -177 -66 -57 -86 -149 -158 -46
-0 -0 -0 -0 -432 -349 -373 -345 -279 -219 -185 -182 -196 -245 -264 -311 -308 -360 -410 -403 -391 -397 -434 -424 -382 -328 -251 -76 -27 -27 -138 -204 -72
-0 -0 -0 -0 -0 -0 -0 -0 -115 -305 -258 -220 -243 -244 -228 -266 -289 -303 -293 -120 -155 -438 -392 -430 -446 -369 -240 -300 -164 -132 -193 -196 -162
-0 -0 -0 -0 -0 -0 -0 -0 -0 -0 -10 -374 -266 -221 -177 -175 -248 -296 -295 -309 -0 -379 -417 -49 -444 -405 -368 -339 -264 -312 -319 -273 -253
-0 -0 -0 -0 -0 -0 -0 -0 -0 -0 -0 -0 -0 -257 -178 -133 -158 -184 -253 -275 -257 -259 -0 -0 -0 -332 -316 -357 -283 -307 -450 -354 -287
-0 -0 -0 -0 -0 -0 -0 -0 -0 -0 -0 -0 -0 -0 -0 -215 -140 -138 -172 -207 -171 -184 -0 -0 -0 -0 -326 -264 -284 -203 -197 -171 -158
-0 -0 -0 -0 -0 -0 -0 -0 -0 -0 -0 -0 -0 -0 -0 -61 -226 -128 -103 -119 -141 -0 -0 -0 -0 -0 -0 -113 -319 -204 -240 -270 -247
-0 -0 -0 -0 -0 -0 -0 -0 -0 -0 -0 -0 -0 -0 -0 -516 -483 -224 -144 -133 -101 -141 -160 -0 -0 -0 -0 -0 -0 -15 -442 -300 -216
Wind_Speed
20 7 16 16 16 15 18 17 15 14 12 13 13 15 19 18 18 18 20 15 9 6 23 18 28 1 2 1 1 2 1 4 2
13 9 8 9 10 11 15 13 11 9 9 10 9 9 13 14 15 15 19 17 8 2 8 31 23 13 12 11 10 9 9 12 3
14 11 10 9 9 11 10 7 4 6 9 9 6 4 13 10 8 10 12 25 23 19 23 32 29 24 20 18 14 13 11 13 16
15 13 12 11 11 11 11 10 7 6 7 6 7 7 5 5 8 9 5 18 28 25 24 31 33 33 30 25 20 17 15 15 29
15 14 13 12 12 12 12 12 10 7 5 3 2 6 11 20 24 23 12 9 25 24 24 21 34 34 31 24 18 16 15 21 29
18 16 14 13 13 14 14 13 13 11 10 8 5 3 20 34 34 33 27 15 16 18 18 21 25 32 30 22 14 5 6 19 33
21 18 16 14 13 14 17 16 14 14 13 11 10 13 16 23 27 22 18 11 10 15 14 16 26 28 26 27 24 21 23 25 30
25 21 17 16 15 14 15 15 15 14 13 12 9 8 14 16 18 18 16 13 8 11 6 3 2 29 27 20 17 22 20 25 29
26 23 19 18 17 15 11 13 15 17 16 14 11 8 3 5 5 25 27 17 5 4 4 6 13 17 20 17 2 18 19 18 25
22 23 21 18 17 14 9 12 15 17 15 16 16 14 10 3 11 18 25 17 6 8 9 16 17 19 21 21 18 23 5 11 4
21 20 20 20 18 14 12 11 11 16 16 15 14 13 10 9 10 8 8 7 11 14 18 19 20 24 27 26 31 30 20 8 7
22 20 20 20 19 16 16 14 12 13 11 16 16 15 13 9 8 7 7 17 19 21 18 25 27 28 30 30 31 26 24 16 15
23 22 22 22 22 22 21 19 16 14 15 17 22 22 22 19 18 17 19 22 23 23 26 28 30 30 32 33 33 28 24 21 20
24 23 24 25 25 26 26 26 22 20 20 22 24 23 24 23 21 22 23 24 25 26 28 31 34 35 34 34 33 31 27 23 21
27 28 29 30 30 30 30 30 30 31 29 30 31 30 28 28 28 27 27 28 28 29 31 32 33 36 37 34 33 30 28 23 19
30 32 33 33 34 37 36 34 34 37 36 34 34 32 32 32 31 31 29 29 28 31 32 33 34 37 38 37 33 29 22 18 16
36 36 37 36 38 40 42 40 39 37 38 36 36 35 35 35 35 32 31 32 31 31 32 34 35 35 36 35 30 25 20 21 18
35 37 37 37 39 40 42 44 44 43 41 41 41 38 36 35 36 36 36 33 33 34 33 32 34 34 33 34 29 23 22 20 19
37 38 39 40 41 41 42 42 43 44 43 43 44 45 41 40 39 38 38 38 37 34 35 33 33 33 31 32 31 30 24 27 29
38 39 39 39 41 42 43 43 44 42 41 41 44 46 48 47 44 44 43 40 40 42 34 34 34 35 34 34 36 31 29 29 28
Wind_Direction
268 118 141 149 158 160 167 169 168 168 167 173 173 177 184 184 187 189 194 189 180 179 205 193 244 308 314 276 291 169 342 341 5
324 354 48 94 125 146 164 169 169 163 161 173 174 178 181 182 182 185 191 191 185 218 188 261 287 305 312 315 317 319 320 318 326
328 341 20 52 74 114 131 128 103 149 167 172 177 163 187 187 197 191 189 206 207 203 210 257 269 282 294 302 311 316 316 317 202
335 327 349 19 23 20 52 45 63 108 144 158 183 197 236 244 284 289 274 200 217 212 212 247 260 250 267 284 296 302 307 312 240
346 357 6 11 15 15 23 47 53 59 80 66 174 219 282 290 272 277 290 196 209 209 212 205 239 247 269 289 300 305 306 299 279
323 338 353 358 6 10 18 28 25 28 29 32 51 113 198 230 242 228 205 189 191 198 200 205 214 229 223 208 200 239 266 300 250
308 316 330 343 354 2 358 9 28 27 50 52 81 134 160 190 205 194 189 185 187 195 193 195 214 219 215 217 213 208 213 215 229
293 305 317 329 342 349 359 3 14 27 29 35 61 151 181 180 179 183 181 176 174 178 170 176 202 228 221 203 198 208 205 214 224
292 299 310 316 329 333 354 353 354 358 2 359 9 23 45 150 342 256 227 184 123 123 139 333 319 305 297 304 220 205 203 202 218
302 303 307 322 330 332 334 334 343 349 360 0 354 6 25 69 311 271 259 179 1 346 335 315 307 304 300 301 233 216 201 194 215
310 313 313 317 328 335 332 324 334 344 344 350 3 3 14 18 359 36 183 4 334 332 318 312 311 303 293 294 282 282 297 303 302
314 313 315 313 320 331 334 330 327 329 337 327 326 336 338 350 359 6 339 315 317 312 327 301 302 300 294 289 287 293 293 296 297
316 315 316 314 311 314 318 325 324 320 322 320 309 307 308 312 315 319 316 307 313 314 309 301 304 305 295 290 288 293 296 293 289
322 319 314 311 311 310 309 309 311 311 311 309 307 302 300 303 310 311 308 308 312 313 310 304 298 299 299 296 291 292 293 290 285
316 312 310 309 306 305 307 307 305 301 301 301 299 296 295 296 299 302 302 303 309 309 306 308 306 299 294 298 296 294 292 289 279
312 310 309 309 306 301 300 302 303 297 299 300 296 294 290 292 295 297 300 302 303 303 306 308 308 301 297 296 297 296 292 287 282
308 309 308 307 304 301 296 298 299 299 298 298 296 293 289 288 289 291 292 294 298 301 303 304 306 305 301 298 296 294 291 289 282
313 311 310 310 307 304 300 297 295 296 297 294 293 292 290 287 286 285 287 288 291 292 296 301 303 304 302 298 298 293 285 281 280
312 311 309 307 306 305 303 302 299 297 296 294 291 289 288 285 283 283 282 283 285 288 290 293 296 299 299 299 297 293 290 279 280
314 313 311 309 307 306 305 302 300 302 302 299 293 288 285 283 281 278 277 277 278 280 289 290 292 292 293 292 291 292 289 283 282